AWG107R LRCL-LROP

Flight info

Callsign AWG107R
Flight time 0h 31m
Altitude 27000
Route IRLOX DCT BIVBU DCT TOSVI
Aircraft A320/M-SDE3FGHIRWY/LB1

Departure

Time 2026-05-04 17:49
Airport Avram Iancu Cluj International Airport (LRCL)

Arrival

Time 2026-05-04 18:20
Airport Bucharest Henri Coandă International Airport (LROP)
Time Latitude Longitude Altitude Speed Heading
2026-05-04 17:32 46.78534 23.69434 1043 ft 0 kts 71°
2026-05-04 17:40 46.78526 23.69404 1043 ft 4 kts 62°
2026-05-04 17:40 46.78511 23.69374 1043 ft 4 kts 33°
2026-05-04 17:41 46.78490 23.69365 1043 ft 2 kts 342°
2026-05-04 17:41 46.78484 23.69368 1043 ft 0 kts 342°
2026-05-04 17:44 46.78484 23.69367 1043 ft 0 kts 342°
2026-05-04 17:44 46.78502 23.69359 1043 ft 5 kts 342°
2026-05-04 17:45 46.78547 23.69338 1043 ft 9 kts 342°
2026-05-04 17:45 46.78619 23.69302 1043 ft 13 kts 341°
2026-05-04 17:45 46.78689 23.69268 1043 ft 12 kts 341°
2026-05-04 17:45 46.78771 23.69230 1043 ft 9 kts 342°
2026-05-04 17:46 46.78845 23.69197 1043 ft 13 kts 343°
2026-05-04 17:46 46.78923 23.69192 1043 ft 11 kts 46°
2026-05-04 17:46 46.78948 23.69299 1043 ft 13 kts 71°
2026-05-04 17:46 46.78980 23.69443 1043 ft 17 kts 71°
2026-05-04 17:47 46.78995 23.69578 1043 ft 9 kts 82°
2026-05-04 17:47 46.79017 23.69624 1043 ft 2 kts 332°
2026-05-04 17:47 46.79014 23.69602 1043 ft 4 kts 264°
2026-05-04 17:47 46.79011 23.69589 1043 ft 0 kts 252°
2026-05-04 17:48 46.79011 23.69587 1043 ft 2 kts 253°
2026-05-04 17:48 46.78953 23.69329 1043 ft 63 kts 252°
2026-05-04 17:48 46.78745 23.68406 1043 ft 125 kts 251°
2026-05-04 17:48 46.78457 23.67125 1429 ft 131 kts 253°
2026-05-04 17:49 46.78171 23.65841 1895 ft 134 kts 252°
2026-05-04 17:49 46.77875 23.64537 2356 ft 136 kts 254°
2026-05-04 17:49 46.77577 23.63224 2769 ft 138 kts 256°
2026-05-04 17:49 46.77278 23.61910 3197 ft 139 kts 256°
2026-05-04 17:50 46.76902 23.60603 3589 ft 144 kts 233°
2026-05-04 17:50 46.76039 23.59822 3920 ft 162 kts 188°
2026-05-04 17:50 46.74850 23.60158 4110 ft 189 kts 160°
2026-05-04 17:50 46.73539 23.60864 4420 ft 212 kts 159°
2026-05-04 17:51 46.72075 23.61667 4794 ft 237 kts 159°
2026-05-04 17:51 46.70448 23.62557 5259 ft 262 kts 160°
2026-05-04 17:51 46.68674 23.63518 5937 ft 277 kts 160°
2026-05-04 17:51 46.66865 23.64514 6914 ft 279 kts 155°
2026-05-04 17:52 46.65133 23.65821 7868 ft 282 kts 150°
2026-05-04 17:52 46.63411 23.67221 8827 ft 284 kts 149°
2026-05-04 17:52 46.61684 23.68659 9785 ft 287 kts 148°
2026-05-04 17:52 46.59927 23.70129 10471 ft 300 kts 148°
2026-05-04 17:53 46.58046 23.71701 10774 ft 324 kts 148°
2026-05-04 17:53 46.56048 23.73361 11313 ft 335 kts 147°
2026-05-04 17:53 46.54007 23.75044 12057 ft 340 kts 147°
2026-05-04 17:53 46.51932 23.76748 12826 ft 344 kts 147°
2026-05-04 17:54 46.49834 23.78476 13599 ft 348 kts 144°
2026-05-04 17:54 46.47844 23.80488 14298 ft 350 kts 139°
2026-05-04 17:54 46.45896 23.82584 14949 ft 355 kts 139°
2026-05-04 17:54 46.43917 23.84753 15599 ft 359 kts 139°
2026-05-04 17:55 46.41914 23.86963 16253 ft 363 kts 139°
2026-05-04 17:55 46.39896 23.89189 16897 ft 368 kts 139°
2026-05-04 17:55 46.37837 23.91448 17547 ft 372 kts 139°
2026-05-04 17:55 46.35754 23.93721 18214 ft 377 kts 140°
2026-05-04 17:56 46.33642 23.96014 18817 ft 381 kts 140°
2026-05-04 17:56 46.31514 23.98324 19442 ft 384 kts 140°
2026-05-04 17:56 46.29367 24.00657 20080 ft 388 kts 140°
2026-05-04 17:56 46.27200 24.03003 20716 ft 391 kts 140°
2026-05-04 17:57 46.25035 24.05337 21320 ft 394 kts 140°
2026-05-04 17:57 46.22831 24.07705 21908 ft 397 kts 140°
2026-05-04 17:57 46.20597 24.10107 22507 ft 401 kts 140°
2026-05-04 17:57 46.18352 24.12528 23100 ft 404 kts 141°
2026-05-04 17:58 46.16093 24.14961 23679 ft 407 kts 141°
2026-05-04 17:58 46.13808 24.17421 24159 ft 411 kts 141°
2026-05-04 17:58 46.11509 24.19896 24623 ft 414 kts 141°
2026-05-04 17:58 46.09197 24.22385 25078 ft 417 kts 141°
2026-05-04 17:59 46.06857 24.24901 25522 ft 420 kts 141°
2026-05-04 17:59 46.04508 24.27427 25955 ft 423 kts 141°
2026-05-04 17:59 45.99749 24.32529 26826 ft 429 kts 142°
2026-05-04 18:00 45.97343 24.35096 27019 ft 432 kts 142°
2026-05-04 18:00 45.94950 24.37640 27064 ft 423 kts 142°
2026-05-04 18:00 45.92622 24.40110 27075 ft 419 kts 142°
2026-05-04 18:00 45.90282 24.42594 27066 ft 418 kts 142°
2026-05-04 18:01 45.87945 24.45079 27070 ft 418 kts 142°
2026-05-04 18:01 45.85617 24.47560 27071 ft 417 kts 141°
2026-05-04 18:01 45.83282 24.50045 27074 ft 417 kts 142°
2026-05-04 18:02 45.78611 24.54989 27067 ft 417 kts 142°
2026-05-04 18:02 45.76274 24.57457 27074 ft 417 kts 142°
2026-05-04 18:02 45.73934 24.59928 27078 ft 417 kts 142°
2026-05-04 18:02 45.71601 24.62391 27080 ft 417 kts 142°
2026-05-04 18:03 45.69261 24.64862 27092 ft 417 kts 143°
2026-05-04 18:03 45.66919 24.67336 27072 ft 419 kts 143°
2026-05-04 18:03 45.64574 24.69809 27076 ft 419 kts 143°
2026-05-04 18:03 45.62225 24.72278 27071 ft 420 kts 143°
2026-05-04 18:04 45.59870 24.74746 26881 ft 417 kts 143°
2026-05-04 18:04 45.57543 24.77176 26626 ft 413 kts 143°
2026-05-04 18:04 45.52936 24.81988 25949 ft 408 kts 142°
2026-05-04 18:05 45.50682 24.84351 25484 ft 407 kts 141°
2026-05-04 18:05 45.48402 24.86738 25051 ft 406 kts 143°
2026-05-04 18:05 45.46116 24.89127 24596 ft 405 kts 142°
2026-05-04 18:05 45.43835 24.91507 24129 ft 408 kts 143°
2026-05-04 18:06 45.38932 24.96620 23054 ft 454 kts 142°
2026-05-04 18:06 45.36411 24.99237 22524 ft 454 kts 142°
2026-05-04 18:06 45.33831 25.01908 21950 ft 450 kts 142°
2026-05-04 18:07 45.31341 25.04485 21388 ft 446 kts 141°
2026-05-04 18:07 45.28848 25.07062 20814 ft 441 kts 141°
2026-05-04 18:07 45.26380 25.09614 20254 ft 436 kts 141°
2026-05-04 18:07 45.23938 25.12139 19664 ft 431 kts 141°
2026-05-04 18:08 45.21529 25.14626 19106 ft 426 kts 141°
2026-05-04 18:08 45.19144 25.17083 18524 ft 421 kts 140°
2026-05-04 18:08 45.16788 25.19508 17918 ft 416 kts 140°
2026-05-04 18:08 45.14460 25.21904 17364 ft 412 kts 140°
2026-05-04 18:09 45.09859 25.26625 16265 ft 405 kts 140°
2026-05-04 18:09 45.05334 25.31265 15176 ft 398 kts 140°
2026-05-04 18:10 45.03096 25.33556 14624 ft 397 kts 140°
2026-05-04 18:10 45.00868 25.35835 14084 ft 394 kts 140°
2026-05-04 18:10 44.98654 25.38095 13508 ft 392 kts 140°
2026-05-04 18:10 44.96476 25.40317 12977 ft 390 kts 140°
2026-05-04 18:11 44.94249 25.42589 12441 ft 389 kts 140°
2026-05-04 18:11 44.92056 25.44821 11914 ft 388 kts 140°
2026-05-04 18:11 44.89901 25.47013 11401 ft 386 kts 140°
2026-05-04 18:11 44.87723 25.49232 10775 ft 384 kts 140°
2026-05-04 18:12 44.85567 25.51425 9988 ft 382 kts 140°
2026-05-04 18:12 44.83402 25.53623 9126 ft 380 kts 140°
2026-05-04 18:12 44.81265 25.55787 8447 ft 377 kts 140°
2026-05-04 18:12 44.79150 25.57927 7774 ft 372 kts 141°
2026-05-04 18:13 44.77059 25.60043 7145 ft 367 kts 141°
2026-05-04 18:13 44.75009 25.62116 6704 ft 357 kts 141°
2026-05-04 18:13 44.71096 25.66064 5972 ft 337 kts 141°
2026-05-04 18:14 44.69211 25.67963 5597 ft 329 kts 141°
2026-05-04 18:14 44.67372 25.69815 5221 ft 322 kts 141°
2026-05-04 18:14 44.65570 25.71630 4854 ft 316 kts 141°
2026-05-04 18:15 44.62052 25.75170 4104 ft 306 kts 143°
2026-05-04 18:15 44.58766 25.78482 3360 ft 276 kts 144°
2026-05-04 18:15 44.57224 25.80046 2990 ft 273 kts 142°
2026-05-04 18:16 44.55914 25.81966 2620 ft 274 kts 124°
2026-05-04 18:16 44.55125 25.84334 2499 ft 261 kts 105°
2026-05-04 18:16 44.54885 25.86777 2501 ft 245 kts 88°
2026-05-04 18:17 44.55198 25.91237 2390 ft 216 kts 83°
2026-05-04 18:17 44.55355 25.93251 2161 ft 199 kts 83°
2026-05-04 18:17 44.55631 25.96817 1730 ft 177 kts 84°
2026-05-04 18:18 44.55762 25.98514 1545 ft 173 kts 84°
2026-05-04 18:18 44.55888 26.00141 1317 ft 158 kts 84°
2026-05-04 18:18 44.56001 26.01608 1125 ft 145 kts 84°
2026-05-04 18:18 44.56107 26.02986 960 ft 139 kts 85°
2026-05-04 18:19 44.56308 26.05616 626 ft 134 kts 85°
2026-05-04 18:19 44.56403 26.06906 462 ft 132 kts 84°
2026-05-04 18:19 44.56505 26.08181 331 ft 124 kts 84°
2026-05-04 18:20 44.56581 26.09216 314 ft 83 kts 84°
2026-05-04 18:20 44.56627 26.09804 317 ft 47 kts 83°
2026-05-04 18:20 44.56661 26.10242 317 ft 44 kts 83°
2026-05-04 18:20 44.56683 26.10522 316 ft 41 kts 84°
2026-05-04 18:21 44.56721 26.10751 316 ft 19 kts 33°
2026-05-04 18:21 44.56855 26.10748 315 ft 21 kts 353°
2026-05-04 18:21 44.56997 26.10705 314 ft 14 kts 327°
2026-05-04 18:21 44.57069 26.10527 312 ft 19 kts 276°
2026-05-04 18:22 44.57062 26.10396 311 ft 21 kts 263°
2026-05-04 18:22 44.57044 26.10179 311 ft 24 kts 263°
2026-05-04 18:22 44.57027 26.09956 313 ft 23 kts 264°
2026-05-04 18:22 44.57010 26.09753 315 ft 21 kts 263°
2026-05-04 18:23 44.56994 26.09540 317 ft 23 kts 264°
2026-05-04 18:23 44.56977 26.09306 316 ft 25 kts 264°
2026-05-04 18:23 44.56963 26.09161 317 ft 4 kts 236°
2026-05-04 18:23 44.56941 26.09157 318 ft 1 kts 168°
2026-05-04 18:24 44.56925 26.09159 318 ft 4 kts 175°
2026-05-04 18:24 44.56913 26.09161 317 ft 0 kts 174°